Tracking 19909 objects as of 21-Oct-2019
HD Live streaming from Space Station
objects crossing your sky now

NOAA 16 DEB

Track NOAA 16 DEB now!
10-day predictions


NORAD ID: 41148
Int'l Code: 2000-055CF
Perigee: 697.2 km
Apogee: 829.9 km
Inclination: 98.9 °
Period: 100.0 minutes
Semi major axis: 7134 km
RCS: Unknown
Launch date: September 21, 2000
Source: United States (US)
Launch site: AIR FORCE WESTERN TEST RANGE (AFWTR)

Note: This is SATELLITE DEBRIS
aabbcc
Your satellite tracking list
Your tracking list is empty




NASA's NSSDC Master Catalog

Two Line Element Set (TLE):
1 41148U 00055CF  19294.13548850  .00002406  00000-0  73135-3 0  9991
2 41148  98.8683  66.3434 0093026 228.5284 130.7889 14.40629571204123
Source of the keplerian elements: AFSPC